Volver al catálogo

KUIPER-00135

ActivoComunicacionesLEO
NORAD 65961·PAYLOAD·🇺🇸 United States

Lanzado Oct 14, 2025 desde Cape Canaveral Space Force Station

Loading…

Próximos Pases (próximas 24 horas)

TLE

ActualizadoSource: CelesTrak SupGP

Época: Sep 15, 2026, 05:15 UTC

1 65961C 25228Q   26258.21881944  .00001959  00000+0  25647-3 0  2584
2 65961  51.9007 232.6096 0000643  72.2488 235.5464 14.79925236    11

Sigue KUIPER-00135 en tiempo real con AllMySat

Download on the App Store